[[{"header":{"parameterUnit":"m.s-1","parameterCategory":1,"la1":30.2991,"la2":30.254,"lo1":-89.0895,"lo2":-89.0444,"dy":0.0017,"dx":0.0017,"nx":28,"ny":28,"refTime":"2024-03-08T03:00:00:Z","depth":0,"parameterNumber":2,"parameterNumberName":"U-component_of_WINDS"},"data":[0,0,0,0,0,0,0,0,0,0,0,0,0,0,0,0,0,0,0,0,0,0,0,0,0,0,0,0,0,0,0,0,0,0,0,0,0,0,0,0,0,0,0,0,0,0,0,0,0,0,0,0,0,0,0,0,0,0,-4.6892,-4.6892,0,-4.6869,-4.6869,-4.6868,-4.6769,-4.6767,-4.6764,-4.6762,-4.674,-4.6741,-4.6743,0,0,0,0,0,0,0,0,0,0,0,0,0,-4.6853,-4.6854,-4.6892,-4.6892,-4.6892,-4.6869,-4.6869,-4.6868,-4.6769,-4.6767,-4.6764,-4.6761,-4.6739,-4.6741,-4.6743,0,0,0,0,0,0,0,0,0,0,0,0,0,-4.6854,-4.6855,-4.6892,-4.684,-4.6835,-4.6869,-4.6869,-4.6868,-4.677,-4.6767,-4.6763,-4.676,-4.6738,-4.6741,-4.6743,-4.6827,0,0,-4.675,-4.6751,0,0,0,0,0,0,0,0,-4.6854,-4.6856,-4.6848,-4.6843,-4.6838,-4.6818,-4.6846,-4.6854,-4.6771,-4.6795,-4.6762,-4.6758,-4.6769,-4.6768,-4.6772,-4.6826,-4.6825,-4.675,-4.6752,-4.6753,-4.6753,0,0,0,0,0,0,0,-4.6854,-4.6856,-4.6883,-4.6848,-4.6842,-4.6818,-4.6814,-4.6847,-4.6801,-4.6792,-4.6785,-4.6784,-4.6765,-4.677,-4.677,-4.6824,-4.675,-4.6752,-4.6754,-4.6755,-4.6947,-4.695,0,0,0,0,0,0,-4.6861,-4.6857,-4.6884,-4.6882,-4.6837,-4.6821,-4.6817,-4.6828,-4.6801,-4.6793,-4.6787,-4.6779,-4.6767,-4.6768,-4.6769,-4.6865,-4.6753,-4.6755,-4.6756,-4.6943,-4.6947,-4.6951,0,0,0,0,0,0,-4.6861,-4.6865,-4.6885,-4.6868,-4.6868,-4.6826,-4.6839,-4.683,-4.6833,-4.6796,-4.6788,-4.6799,-4.6765,-4.6766,-4.6813,-4.6863,-4.6756,-4.6758,-4.6939,-4.6944,-4.6949,-4.7057,0,0,0,0,0,0,-4.686,-4.6865,-4.6896,-4.6869,-4.687,-4.6929,-4.6842,-4.6832,-4.6838,-4.6828,-4.6806,-4.6799,-4.6762,-4.681,-4.6816,-4.6864,-4.676,-4.6934,-4.6941,-4.6948,-4.7049,-4.7066,-4.708,0,0,0,0,0,-4.6859,-4.6928,-4.6898,-4.6902,-4.6907,-4.6932,-4.6932,-4.6888,-4.6842,-4.6873,-4.6849,-4.68,-4.6857,-4.6816,-4.6821,-4.6871,-4.693,-4.6939,-4.6947,-4.7042,-4.7063,-4.708,0,0,0,0,0,0,-4.6961,-4.6923,-4.689,-4.6951,-4.6946,-4.6915,-4.6952,-4.6911,-4.6918,-4.6908,-4.6853,-4.6849,-4.6905,-4.6893,-4.6848,-4.6951,-4.6885,-4.6895,-4.6956,-4.6975,-4.699,-4.6991,-4.6762,0,0,0,0,0,-4.6991,-4.7014,-4.6979,-4.7037,-4.7036,-4.6996,-4.7004,-4.6971,-4.6963,-4.696,-4.6939,-4.6934,-4.695,-4.6962,-4.6976,-4.7048,-4.7041,-4.7085,-4.7101,-4.7113,-4.7122,-4.7159,-4.7177,-4.6979,-4.6979,-4.6978,0,0,-4.7053,-4.7035,-4.7052,-4.7058,-4.7049,-4.7074,-4.6994,-4.7024,-4.7042,-4.6964,-4.7007,-4.6993,-4.6983,-4.7043,-4.7069,-4.7035,-4.7176,-4.7124,-4.7135,-4.7136,-4.7169,-4.7188,-4.7205,-4.6984,-4.6983,-4.6982,0,0,-4.7177,-4.7166,-4.7213,-4.7206,-4.7195,-4.7167,-4.7179,-4.7155,-4.7142,-4.7185,-4.7127,-4.7149,-4.7178,-4.7174,-4.7175,-4.7301,-4.7255,-4.7307,-4.7387,-4.7424,-4.7439,-4.7453,-4.7497,-4.7513,-4.7316,-4.7316,-4.7316,0,-4.7255,-4.729,-4.7242,-4.7276,-4.728,-4.7212,-4.7259,-4.7255,-4.7249,-4.7253,-4.7216,-4.7252,-4.7241,-4.7299,-4.7329,-4.7333,-4.7345,-4.7308,-4.7441,-4.7454,-4.7466,-4.7507,-4.7524,-4.7322,-4.7322,-4.7321,-4.732,0,-4.7386,-4.7412,-4.7451,-4.7446,-4.7455,-4.7495,-4.7454,-4.7469,-4.7436,-4.7413,-4.7457,-4.7442,-4.745,-4.7462,-4.743,-4.7516,-4.7495,-4.7451,-4.7383,-4.7492,-4.753,-4.7545,-4.7331,-4.7329,-4.7327,-4.7326,0,0,-4.7571,-4.7541,-4.7556,-4.7553,-4.7536,-4.7555,-4.7594,-4.7602,-4.7615,-4.7615,-4.7645,-4.7672,-4.7631,-4.7633,-4.76,-4.7633,-4.7732,-4.7584,-4.7583,-4.7611,-4.7825,-4.7857,-4.7876,-4.7703,-4.7706,-4.7708,-4.7825,0,-4.7689,-4.7751,-4.771,-4.7779,-4.7802,-4.7738,-4.7771,-4.7765,-4.7745,-4.7763,-4.7741,-4.7761,-4.7705,-4.7706,-4.7736,-4.7714,-4.7774,-4.7705,-4.773,-4.7731,-4.7732,-4.7896,-4.793,-4.8041,-4.784,-4.7842,-4.7844,0,-4.7834,-4.7838,-4.791,-4.7889,-4.7897,-4.7927,-4.7932,-4.7949,-4.7941,-4.7925,-4.7928,-4.7887,-4.7923,-4.786,-4.7909,-4.7863,-4.7871,-4.7862,-4.7865,-4.7864,-4.7793,-4.7898,-4.8076,-4.8092,-4.7867,-4.7865,-4.7863,0,-4.796,-4.7985,-4.803,-4.803,-4.8007,-4.803,-4.8022,-4.801,-4.8018,-4.8023,-4.8028,-4.8038,-4.8042,-4.8051,-4.8014,-4.7971,-4.8068,-4.8001,-4.8055,-4.8056,-4.8076,-4.8075,-4.8256,-4.8085,-4.8085,-4.8085,-4.8084,0,-4.8094,-4.814,-4.8087,-4.8115,-4.8164,-4.8118,-4.8168,-4.8153,-4.8144,-4.8168,-4.8115,-4.8139,-4.809,-4.8109,-4.8081,-4.8126,-4.8129,-4.8116,-4.8108,-4.812,-4.8121,-4.8123,-4.8113,-4.8089,-4.8088,-4.8087,-4.8087,0,-4.8243,-4.8209,-4.8254,-4.8229,-4.8224,-4.8262,-4.8241,-4.8266,-4.8243,-4.8275,-4.828,-4.8244,-4.8264,-4.8229,-4.8245,-4.8226,-4.8288,-4.8269,-4.829,-4.8284,-4.8339,-4.8334,-4.8526,-4.8549,-4.8365,-4.8367,-4.8369,0,-4.8329,-4.8363,-4.8342,-4.8354,-4.8349,-4.8369,-4.8377,-4.8334,-4.8344,-4.8339,-4.8365,-4.8381,-4.839,-4.8426,-4.8402,-4.8414,-4.8393,-4.846,-4.8394,-4.8405,-4.8392,-4.839,-4.8392,-4.8472,-4.8475,-4.8476,-4.8478,0,-4.8486,-4.8468,-4.8481,-4.849,-4.8501,-4.8505,-4.8506,-4.8519,-4.8473,-4.8488,-4.8508,-4.8516,-4.8532,-4.8548,-4.8555,-4.8547,-4.8505,-4.8499,-4.8512,-4.8523,-4.8534,-4.8527,-4.8325,-4.8494,-4.8493,-4.8491,-4.849,-4.849,-4.8605,-4.8632,-4.8621,-4.8638,-4.8634,-4.8637,-4.8659,-4.8639,-4.8655,-4.8664,-4.8639,-4.8665,-4.8657,-4.8661,-4.8658,-4.8678,-4.8648,-4.8667,-4.8672,-4.8676,-4.8685,-4.8533,-4.8679,-4.8679,-4.8678,-4.8678,-4.8677,0,-4.8758,-4.8748,-4.8764,-4.8767,-4.8781,-4.8741,-4.874,-4.8754,-4.8777,-4.8774,-4.8785,-4.8808,-4.8824,-4.8802,-4.8814,-4.8835,-4.8816,-4.8839,-4.8836,-4.8835,-4.8711,-4.8698,-4.8854,-4.8854,-4.8854,-4.8854,-4.8854,-4.8854,-4.8838,-4.8882,-4.8863,-4.8904,-4.8894,-4.8919,-4.8922,-4.8924,-4.8921,-4.8949,-4.8962,-4.8947,-4.8937,-4.8948,-4.8961,-4.8954,-4.896,-4.899,-4.8977,-4.8861,-4.8844,-4.8827,-4.8814,-4.8993,-4.8993,-4.9099,-4.91,-4.91]},{"header":{"parameterUnit":"m.s-1","parameterCategory":1,"la1":30.2991,"la2":30.254,"lo1":-89.0895,"lo2":-89.0444,"dy":0.0017,"dx":0.0017,"nx":28,"ny":28,"refTime":"2024-03-08T03:00:00:Z","depth":0,"parameterNumber":3,"parameterNumberName":"V-component_of_WINDS"},"data":[0,0,0,0,0,0,0,0,0,0,0,0,0,0,0,0,0,0,0,0,0,0,0,0,0,0,0,0,0,0,0,0,0,0,0,0,0,0,0,0,0,0,0,0,0,0,0,0,0,0,0,0,0,0,0,0,0,0,1.9804,1.9804,0,1.9785,1.9784,1.9784,1.9753,1.9753,1.9752,1.9752,1.9726,1.9726,1.9726,0,0,0,0,0,0,0,0,0,0,0,0,0,1.9812,1.9812,1.9804,1.9804,1.9804,1.9785,1.9784,1.9784,1.9753,1.9753,1.9752,1.9751,1.9726,1.9726,1.9726,0,0,0,0,0,0,0,0,0,0,0,0,0,1.9802,1.9812,1.9804,1.9786,1.9784,1.9785,1.9784,1.9784,1.9753,1.9753,1.9752,1.9751,1.9726,1.9726,1.9726,1.9741,0,0,1.9725,1.9725,0,0,0,0,0,0,0,0,1.9803,1.9802,1.9789,1.9788,1.9786,1.9771,1.9778,1.9769,1.9754,1.9765,1.9752,1.9751,1.9741,1.974,1.9738,1.9739,1.9738,1.9725,1.9725,1.9725,1.9725,0,0,0,0,0,0,0,1.9803,1.9802,1.9796,1.9789,1.9787,1.9778,1.9776,1.9776,1.9758,1.9764,1.9762,1.976,1.974,1.9738,1.9737,1.9738,1.9725,1.9725,1.9725,1.9725,1.9754,1.9754,0,0,0,0,0,0,1.9807,1.9803,1.9797,1.9796,1.9792,1.9779,1.9776,1.9776,1.9758,1.9754,1.9761,1.9759,1.9739,1.9737,1.9736,1.9754,1.9725,1.9724,1.9724,1.9753,1.9754,1.9755,0,0,0,0,0,0,1.9808,1.9807,1.9798,1.9799,1.9797,1.9779,1.978,1.9776,1.9774,1.9755,1.9752,1.9762,1.9738,1.9736,1.9741,1.9752,1.9724,1.9724,1.9752,1.9753,1.9754,1.9789,0,0,0,0,0,0,1.9808,1.9807,1.9813,1.9799,1.9797,1.9804,1.978,1.9776,1.9774,1.9772,1.9756,1.9752,1.9737,1.9741,1.974,1.9752,1.9724,1.975,1.9752,1.9754,1.9787,1.9791,1.9795,0,0,0,0,0,1.9808,1.9822,1.9814,1.9813,1.9805,1.9805,1.9803,1.9787,1.9775,1.9781,1.977,1.9753,1.9751,1.9742,1.9741,1.9752,1.975,1.9752,1.9754,1.9785,1.979,1.9795,0,0,0,0,0,0,1.9835,1.982,1.981,1.982,1.9815,1.9799,1.9806,1.9793,1.9789,1.9786,1.9765,1.9762,1.9769,1.9761,1.9751,1.9767,1.9748,1.975,1.9772,1.9777,1.9781,1.9783,1.9724,0,0,0,0,0,1.9843,1.9845,1.9831,1.9841,1.9839,1.9823,1.9823,1.9811,1.9803,1.98,1.9789,1.978,1.9779,1.9777,1.9774,1.9785,1.9782,1.9793,1.9797,1.9801,1.9803,1.981,1.9815,1.9762,1.9762,1.9761,0,0,1.9857,1.9849,1.9852,1.9847,1.9841,1.9843,1.9821,1.9824,1.9826,1.98,1.9804,1.9796,1.9786,1.9794,1.9797,1.9787,1.9817,1.9803,1.9806,1.9806,1.9813,1.9818,1.9822,1.9763,1.9763,1.9762,0,0,1.9885,1.988,1.9889,1.9884,1.9876,1.9866,1.9869,1.9856,1.9851,1.9855,1.9837,1.9838,1.9834,1.9828,1.9825,1.9855,1.984,1.9854,1.9877,1.9884,1.9888,1.9892,1.9904,1.9908,1.9856,1.9856,1.9856,0,1.9904,1.9909,1.9894,1.99,1.9898,1.9878,1.9887,1.9882,1.9873,1.9873,1.9862,1.986,1.9851,1.9859,1.9867,1.9864,1.9866,1.9856,1.9889,1.9893,1.9896,1.9907,1.9912,1.9858,1.9858,1.9858,1.9858,0,1.9933,1.9937,1.9944,1.994,1.9939,1.9946,1.9932,1.9933,1.9923,1.9914,1.992,1.9909,1.9905,1.9906,1.9894,1.9913,1.9907,1.9893,1.9874,1.9903,1.9914,1.9917,1.9861,1.986,1.986,1.9859,0,0,1.9975,1.9965,1.9968,1.9967,1.9958,1.996,1.9967,1.9965,1.9967,1.9962,1.9967,1.9967,1.9955,1.9951,1.9939,1.9945,1.9972,1.9931,1.993,1.994,1.9994,2.0005,2.001,1.9962,1.9963,1.9963,1.9995,0,2.0002,2.0015,2.0003,2.0017,2.0021,2.0004,2.001,2.0005,1.9997,1.9999,1.9989,1.999,1.9974,1.9972,1.9978,1.9967,1.9982,1.9965,1.9966,1.9967,1.997,2.0015,2.0026,2.0056,1.9999,1.9999,2.0,0,2.0035,2.0035,2.0051,2.0044,2.0045,2.0051,2.005,2.0052,2.0046,2.004,2.0038,2.0025,2.0031,2.0013,2.0021,2.0009,2.0009,2.0005,2.0005,2.0005,1.9985,2.0016,2.0065,2.007,2.0006,2.0005,2.0005,0,2.0066,2.007,2.008,2.0079,2.0072,2.0077,2.0073,2.0067,2.0068,2.0066,2.0067,2.0065,2.0064,2.0063,2.0049,2.0037,2.006,2.004,2.0055,2.0055,2.006,2.006,2.011,2.0059,2.0059,2.0059,2.0059,0,2.0098,2.0108,2.0095,2.0101,2.0113,2.01,2.0111,2.0106,2.0101,2.0106,2.009,2.0094,2.0076,2.0079,2.0068,2.0078,2.0077,2.0072,2.0069,2.0074,2.0075,2.0074,2.0071,2.006,2.006,2.006,2.006,0,2.0134,2.0125,2.0136,2.0129,2.0128,2.0137,2.013,2.0136,2.0129,2.0135,2.0136,2.0124,2.0126,2.0113,2.0112,2.0106,2.012,2.0113,2.0123,2.0121,2.0137,2.0136,2.0189,2.0196,2.014,2.0141,2.0141,0,2.0155,2.0163,2.0158,2.0162,2.016,2.0165,2.0167,2.0154,2.0156,2.0153,2.0159,2.0161,2.0162,2.0167,2.0157,2.0158,2.0151,2.017,2.0151,2.0156,2.0153,2.0153,2.0154,2.0173,2.0174,2.0175,2.0175,0,2.0193,2.0189,2.0193,2.0197,2.02,2.0201,2.0201,2.0204,2.0191,2.0194,2.0198,2.0199,2.0201,2.0203,2.0202,2.0197,2.0184,2.0182,2.0185,2.019,2.0196,2.0194,2.0134,2.018,2.0179,2.0179,2.0179,2.0179,2.0223,2.023,2.0229,2.0235,2.0234,2.0235,2.0241,2.0236,2.024,2.0242,2.0234,2.0241,2.0237,2.0234,2.0232,2.0236,2.0227,2.0232,2.0233,2.0235,2.0238,2.0196,2.0235,2.0235,2.0235,2.0235,2.0235,0,2.0261,2.0261,2.0266,2.0268,2.0273,2.0263,2.0263,2.0267,2.0274,2.0273,2.0275,2.0281,2.0284,2.0276,2.0278,2.0283,2.0277,2.0284,2.0283,2.0283,2.0245,2.0243,2.0289,2.0289,2.0289,2.0289,2.0289,2.0289,2.0282,2.0295,2.0292,2.0305,2.0303,2.0311,2.0313,2.0314,2.0313,2.0321,2.0325,2.0321,2.0317,2.0319,2.0322,2.0319,2.0321,2.033,2.0326,2.0291,2.0285,2.028,2.0278,2.033,2.033,2.0363,2.0363,2.0363]}]]